W1CLK Weather Reports


time (UTC)temp
C
wind
direction
speed
KPH
gust
KPH
rain 1hr
cm
rain 24hr
cm
rain mn
cm
humidity
%
barometer
mb
20260504231844 19 266 4.8 9.7 0.00 0.00 0.00 46 1010.0
20260504231344 19 223 4.8 11.3 0.00 0.00 0.00 45 1010.0
20260504230844 20 269 4.8 11.3 0.00 0.00 0.00 45 1010.0
20260504230344 20 139 6.4 11.3 0.00 0.00 0.00 44 1010.0
20260504225845 20 266 8.0 14.5 0.00 0.00 0.00 45 1010.0
20260504225344 20 242 6.4 14.5 0.00 0.00 0.00 44 1010.0
20260504224844 20 213 4.8 9.7 0.00 0.00 0.00 45 1010.0
20260504224344 20 112 3.2 6.4 0.00 0.00 0.00 44 1010.0
20260504223844 20 172 3.2 11.3 0.00 0.00 0.00 43 1010.0
20260504223344 20 192 4.8 8.0 0.00 0.00 0.00 43 1010.0
20260504222844 20 279 3.2 6.4 0.00 0.00 0.00 42 1010.0
20260504222344 21 256 3.2 9.7 0.00 0.00 0.00 43 1010.0
20260504221844 21 226 9.7 24.1 0.00 0.00 0.00 42 1010.0
20260504221344 21 217 4.8 8.0 0.00 0.00 0.00 42 1010.0
20260504220845 21 266 8.0 12.9 0.00 0.00 0.00 42 1010.0
20260504220345 21 211 4.8 8.0 0.00 0.00 0.00 42 1010.0
20260504215844 21 258 8.0 20.9 0.00 0.00 0.00 42 1010.0
20260504215344 21 116 4.8 9.7 0.00 0.00 0.00 41 1010.0
20260504214844 21 274 3.2 8.0 0.00 0.00 0.00 42 1010.0
20260504214345 21 115 6.4 9.7 0.00 0.00 0.00 42 1010.0
20260504213844 21 156 8.0 17.7 0.00 0.00 0.00 41 1010.0
20260504213344 21 150 4.8 11.3 0.00 0.00 0.00 42 1010.0
20260504212845 21 240 4.8 16.1 0.00 0.00 0.00 42 1010.0
20260504212344 21 182 8.0 16.1 0.00 0.00 0.00 41 1010.0
20260504211846 21 215 6.4 9.7 0.00 0.00 0.00 41 1010.0
20260504211344 21 233 4.8 11.3 0.00 0.00 0.00 42 1010.0
20260504210845 21 111 9.7 16.1 0.00 0.00 0.00 41 1010.0
20260504210344 21 111 6.4 9.7 0.00 0.00 0.00 42 1010.0
20260504205844 21 259 3.2 11.3 0.00 0.00 0.00 44 1010.0
20260504205344 21 132 8.0 12.9 0.00 0.00 0.00 41 1010.0
20260504204844 21 118 9.7 12.9 0.00 0.00 0.00 41 1010.0
20260504204344 21 114 3.2 8.0 0.00 0.00 0.00 42 1010.0
20260504203844 21 165 3.2 8.0 0.00 0.00 0.00 41 1010.0
20260504203344 21 180 6.4 12.9 0.00 0.00 0.00 43 1010.0
20260504202844 21 236 9.7 17.7 0.00 0.00 0.00 42 1010.0
20260504202344 21 144 6.4 12.9 0.00 0.00 0.00 43 1010.0
20260504201844 21 206 1.6 6.4 0.00 0.00 0.00 44 1010.0
20260504200907 21 138 4.8 9.7 0.00 0.00 0.00 42 1010.0
20260504200344 21 125 4.8 9.7 0.00 0.00 0.00 42 1011.0
20260504195846 21 271 9.7 19.3 0.00 0.00 0.00 45 1011.0
20260504195344 21 128 4.8 8.0 0.00 0.00 0.00 42 1011.0
20260504194845 21 138 8.0 17.7 0.00 0.00 0.00 42 1011.0
20260504194345 21 238 4.8 9.7 0.00 0.00 0.00 43 1011.0
20260504193844 21 141 6.4 9.7 0.00 0.00 0.00 41 1011.0
20260504193345 21 175 3.2 9.7 0.00 0.00 0.00 42 1011.0
20260504192844 21 109 4.8 14.5 0.00 0.00 0.00 43 1011.0
20260504192345 21 151 3.2 6.4 0.00 0.00 0.00 41 1011.0
20260504191845 21 255 6.4 16.1 0.00 0.00 0.00 45 1011.0
20260504191345 21 259 9.7 19.3 0.00 0.00 0.00 44 1011.0
20260504190844 21 254 6.4 17.7 0.00 0.00 0.00 44 1011.0
20260504190345 21 156 6.4 12.9 0.00 0.00 0.00 43 1011.0
20260504185845 21 156 3.2 6.4 0.00 0.00 0.00 43 1011.0
20260504185344 21 166 6.4 11.3 0.00 0.00 0.00 43 1011.0
20260504184844 21 278 6.4 14.5 0.00 0.00 0.00 43 1011.0
20260504184344 21 295 3.2 6.4 0.00 0.00 0.00 44 1011.0
20260504183844 21 106 6.4 11.3 0.00 0.00 0.00 42 1011.0
20260504183345 21 97 6.4 12.9 0.00 0.00 0.00 41 1011.0
20260504182845 21 278 6.4 12.9 0.00 0.00 0.00 44 1012.0
20260504182344 21 105 6.4 11.3 0.00 0.00 0.00 43 1012.0
20260504181844 20 300 1.6 4.8 0.00 0.00 0.00 44 1012.0
20260504181344 20 245 4.8 9.7 0.00 0.00 0.00 42 1012.0
20260504180844 20 269 4.8 9.7 0.00 0.00 0.00 43 1012.0
20260504180347 20 278 6.4 11.3 0.00 0.00 0.00 44 1012.0
20260504175845 20 288 6.4 14.5 0.00 0.00 0.00 44 1012.0
20260504175345 20 269 11.3 22.5 0.00 0.00 0.00 44 1012.0
20260504174844 20 139 1.6 6.4 0.00 0.00 0.00 43 1012.0
20260504174345 20 259 6.4 12.9 0.00 0.00 0.00 45 1012.0
20260504173847 20 255 4.8 9.7 0.00 0.00 0.00 48 1012.0
20260504173345 20 147 1.6 4.8 0.00 0.00 0.00 42 1012.0
20260504172845 20 278 4.8 11.3 0.00 0.00 0.00 46 1012.0
20260504172345 20 223 9.7 16.1 0.00 0.00 0.00 45 1012.0
20260504171845 19 224 4.8 11.3 0.00 0.00 0.00 46 1013.0
20260504171345 19 269 11.3 19.3 0.00 0.00 0.00 43 1013.0
20260504170845 20 187 6.4 12.9 0.00 0.00 0.00 43 1013.0
20260504170348 19 124 11.3 20.9 0.00 0.00 0.00 44 1012.0
20260504160344 18 263 3.2 6.4 0.00 0.00 0.00 43 1013.0
20260504150845 17 103 6.4 16.1 0.00 0.00 0.00 44 1014.0
20260504150345 17 206 3.2 8.0 0.00 0.00 0.00 46 1014.0
20260504140845 16 271 6.4 12.9 0.00 0.00 0.00 54 1014.0
20260504140345 16 136 6.4 12.9 0.00 0.00 0.00 52 1014.0
20260504130345 13 274 12.9 22.5 0.00 0.00 0.00 62 1014.0
20260504110344 5 135 0.0 0.0 0.00 0.00 0.00 74 1015.0
20260504100344 3 0 0.0 0.0 0.00 0.00 0.00 78 1015.0
20260504081846 7 263 9.7 17.7 0.00 0.00 0.00 60 1015.0
20260504081346 7 271 11.3 17.7 0.00 0.00 0.00 59 1015.0
20260504080845 7 273 11.3 16.1 0.00 0.00 0.00 60 1015.0
20260504080344 8 269 14.5 22.5 0.00 0.00 0.00 60 1015.0
20260504070345 5 96 1.6 3.2 0.00 0.00 0.00 72 1015.0
20260504050344 6 266 11.3 14.5 0.00 0.00 0.00 63 1015.0
20260504045845 6 268 8.0 12.9 0.00 0.00 0.00 69 1015.0
20260504045344 5 266 3.2 11.3 0.00 0.00 0.00 72 1015.0
20260504044844 5 67 0.0 1.6 0.00 0.00 0.00 74 1015.0
20260504044344 5 138 0.0 1.6 0.00 0.00 0.00 73 1015.0
20260504043844 5 84 0.0 3.2 0.00 0.00 0.00 73 1015.0
20260504043344 6 0 0.0 0.0 0.00 0.00 0.00 73 1015.0
20260504042844 6 113 0.0 3.2 0.00 0.00 0.00 71 1015.0
20260504042344 6 163 1.6 4.8 0.00 0.00 0.00 70 1015.0
20260504041844 5 196 6.4 12.9 0.00 0.00 0.00 70 1014.0
20260504041348 5 123 1.6 3.2 0.00 0.00 0.00 73 1014.0
20260504040844 5 95 0.0 4.8 0.00 0.00 0.00 76 1014.0
20260504040344 4 61 0.0 3.2 0.00 0.00 0.00 78 1014.0
20260504035844 4 111 0.0 3.2 0.00 0.00 0.00 78 1014.0
20260504035348 4 52 0.0 1.6 0.00 0.00 0.00 79 1014.0
20260504034844 4 67 1.6 3.2 0.00 0.00 0.00 80 1014.0
20260504034344 4 95 3.2 4.8 0.00 0.00 0.00 82 1014.0
20260504033844 4 59 0.0 3.2 0.00 0.00 0.00 83 1014.0
20260504033345 4 0 0.0 0.0 0.00 0.00 0.00 82 1014.0
20260504032844 4 0 0.0 0.0 0.00 0.00 0.00 81 1014.0
20260504032344 4 101 0.0 1.6 0.00 0.00 0.00 81 1014.0
20260504031844 4 77 0.0 1.6 0.00 0.00 0.00 82 1014.0
20260504031344 4 0 0.0 0.0 0.00 0.00 0.00 81 1014.0
20260504030844 5 0 0.0 0.0 0.00 0.00 0.00 81 1014.0
20260504030344 5 226 0.0 1.6 0.00 0.00 0.00 80 1014.0
20260504025844 5 133 0.0 0.0 0.00 0.00 0.00 79 1014.0
20260504025344 5 133 0.0 1.6 0.00 0.00 0.00 79 1014.0
20260504024845 5 147 0.0 1.6 0.00 0.00 0.00 79 1014.0
20260504024344 5 77 0.0 1.6 0.00 0.00 0.00 79 1014.0
20260504023844 5 53 0.0 3.2 0.00 0.00 0.00 78 1014.0
20260504023344 5 69 0.0 0.0 0.00 0.00 0.00 77 1014.0
20260504022844 5 225 1.6 4.8 0.00 0.00 0.00 77 1014.0
20260504022344 5 160 1.6 3.2 0.00 0.00 0.00 76 1014.0
20260504021844 5 227 1.6 3.2 0.00 0.00 0.00 77 1014.0
20260504021345 5 109 0.0 0.0 0.00 0.00 0.00 76 1014.0
20260504020844 6 76 0.0 1.6 0.00 0.00 0.00 75 1014.0
20260504020344 6 64 0.0 1.6 0.00 0.00 0.00 74 1014.0
20260504015844 6 0 0.0 0.0 0.00 0.00 0.00 72 1014.0
20260504015344 6 69 0.0 1.6 0.00 0.00 0.00 71 1014.0
20260504014845 6 0 0.0 0.0 0.00 0.00 0.00 69 1014.0
20260504014344 7 0 0.0 0.0 0.00 0.00 0.00 68 1014.0
20260504013844 7 125 0.0 1.6 0.00 0.00 0.00 68 1014.0
20260504013344 7 1 0.0 1.6 0.00 0.00 0.00 65 1014.0
20260504012844 7 91 0.0 1.6 0.00 0.00 0.00 64 1014.0
20260504012344 8 85 0.0 1.6 0.00 0.00 0.00 63 1014.0
20260504011844 8 98 0.0 1.6 0.00 0.00 0.00 61 1014.0
20260504011344 8 74 0.0 1.6 0.00 0.00 0.00 61 1014.0
20260504010844 9 240 3.2 6.4 0.00 0.00 0.00 58 1014.0
20260504010344 10 150 0.0 3.2 0.00 0.00 0.00 55 1014.0
20260504005844 10 246 8.0 12.9 0.00 0.00 0.00 54 1014.0
20260504005344 10 262 9.7 16.1 0.00 0.00 0.00 52 1014.0
20260504004844 10 259 8.0 11.3 0.00 0.00 0.00 53 1014.0
20260504004344 10 223 3.2 6.4 0.00 0.00 0.00 52 1014.0
20260504003844 11 254 8.0 12.9 0.00 0.00 0.00 50 1014.0
20260504003344 11 263 4.8 9.7 0.00 0.00 0.00 51 1013.0
20260504002844 11 261 8.0 14.5 0.00 0.00 0.00 49 1013.0
20260504002344 11 253 6.4 9.7 0.00 0.00 0.00 48 1013.0
20260504001844 12 256 8.0 9.7 0.00 0.00 0.00 47 1013.0
20260504001345 12 266 9.7 16.1 0.00 0.00 0.00 45 1013.0
20260504000844 12 265 8.0 12.9 0.00 0.00 0.00 44 1013.0
20260504000346 12 224 4.8 6.4 0.00 0.00 0.00 46 1013.0
20260503235844 12 257 6.4 11.3 0.00 0.00 0.00 43 1013.0
20260503235344 12 264 4.8 9.7 0.00 0.00 0.00 43 1013.0
20260503234844 13 268 4.8 8.0 0.00 0.00 0.00 42 1013.0
20260503234344 13 260 4.8 9.7 0.00 0.00 0.00 42 1013.0
20260503233844 13 273 12.9 17.7 0.00 0.00 0.00 41 1013.0
20260503233344 13 217 4.8 8.0 0.00 0.00 0.00 43 1013.0
20260503232844 13 257 8.0 12.9 0.00 0.00 0.00 42 1013.0
20260503232344 13 255 6.4 12.9 0.00 0.00 0.00 42 1013.0